Tel Aviv, Israel

5:20 PM IST on November 19, 2017 (GMT +0200)
Ben Gurion

Weather History for LLBG - November, 2011

Change the Weather History Date:

Saturday, November 19, 2011

  Actual Average Record
Temperature  
Mean Temperature 61 °F -  
Max Temperature 67 °F 68 °F 84 °F (2008)
Min Temperature 55 °F 52 °F 48 °F (2001)
Degree Days  
Heating Degree Days 4    
Growing Degree Days 11 (Base 50)    
Moisture  
Dew Point 54 °F    
Average Humidity 84    
Maximum Humidity 94    
Minimum Humidity 52    
Precipitation  
Precipitation 5.51 in - - ()
Sea Level Pressure  
Sea Level Pressure 29.99 in    
Wind  
Wind Speed 7 mph ()    
Max Wind Speed 17 mph    
Max Gust Speed -    
Visibility 5.6 miles    
Events Rain , Thunderstorm    
Averages and records for this station are not official NWS values.
T = Trace of Precipitation, MM = Missing Value Source: Averaged Metar Reports

Daily Weather History Graph

Daily Weather History Graph

Search for Another Location

Airport or City:

Trip Planner

Search our weather history database for the weather conditions in past years. The results will help you decide how hot, cold, wet, or windy it might be!

Date:

Astronomy

Nov. 19, 2011 Rise Set
Actual Time 6:12 AM IST 4:38 PM IST
Civil Twilight 5:46 AM IST 5:05 PM IST
Nautical Twilight 5:16 AM IST 5:34 PM IST
Astronomical Twilight 4:47 AM IST 6:03 PM IST
Moon No Moon Rise 12:24 PM IST
Length of Visible Light 11h 19m
Length of Day
10h 26m
Last Quarter, 41% of the Moon is Illuminated
Nov 19
Last Quarter
Nov 25
New
Dec 2
First Quarter
Dec 10
Full
Dec 18
Last Quarter

Hourly Weather History & Observations

Time (IST) Temp. Dew Point Humidity Pressure Visibility Wind Dir Wind Speed Gust Speed Precip Events Conditions
12:50 AM 57.2 °F 53.6 °F 88% 30.01 in 6.2 mi SE 3.5 mph - N/A   Mostly Cloudy
1:50 AM 57.2 °F 53.6 °F 88% 30.01 in 6.2 mi SE 5.8 mph - N/A   Mostly Cloudy
2:00 AM 57 °F 53 °F 81% 30.01 in 6 mi SE 5.8 mph - -   Partly Cloudy
2:42 AM 57.2 °F 53.6 °F 88% 30.01 in 4.3 mi West 6.9 mph - N/A Rain Rain
2:50 AM 57.2 °F 53.6 °F 88% 30.01 in 4.3 mi SW 9.2 mph - N/A Rain Rain
3:23 AM 57.2 °F 53.6 °F 88% 30.01 in 5.6 mi South 16.1 mph - N/A Rain Light Rain
3:50 AM 57.2 °F 53.6 °F 88% 30.01 in 6.2 mi South 11.5 mph - N/A Rain Light Rain
3:59 AM 55.4 °F 53.6 °F 94% 30.01 in 5.0 mi South 12.7 mph - N/A Rain Rain
4:21 AM 55.4 °F 53.6 °F 94% 29.98 in 6.2 mi SSE 9.2 mph - N/A Rain Light Rain
4:50 AM 57.2 °F 53.6 °F 88% 29.98 in 6.2 mi SE 8.1 mph - N/A   Overcast
5:50 AM 57.2 °F 53.6 °F 88% 29.98 in 5.6 mi SE 10.4 mph - N/A Rain Light Rain
6:50 AM 57.2 °F 53.6 °F 88% 30.01 in 6.2 mi SE 11.5 mph - N/A   Mostly Cloudy
7:50 AM 59.0 °F 55.4 °F 88% 30.01 in 6.2 mi SE 10.4 mph - N/A   Scattered Clouds
8:00 AM 58 °F 55 °F 86% 30.01 in 6 mi SE 10.4 mph - -   Partly Cloudy
8:50 AM 59.0 °F 53.6 °F 82% 30.01 in 6.2 mi South 12.7 mph - N/A   Mostly Cloudy
9:50 AM 60.8 °F 51.8 °F 72% 30.01 in 6.2 mi South 17.3 mph - N/A Rain Light Rain
10:39 AM 57.2 °F 53.6 °F 88% 30.01 in 3.1 mi South 15.0 mph - N/A Rain Mostly Cloudy
10:50 AM 57.2 °F 53.6 °F 88% 30.01 in 3.1 mi South 12.7 mph - N/A   Mostly Cloudy
11:50 AM 62.6 °F 55.4 °F 77% 29.98 in 6.2 mi South 9.2 mph - N/A Rain Light Rain
12:50 PM 59.0 °F 51.8 °F 77% 29.95 in 1.2 mi WNW 5.8 mph - N/A Rain Heavy Rain
1:50 PM 66.2 °F 51.8 °F 60% 29.95 in 5.6 mi West 11.5 mph - N/A Rain Rain Showers
2:00 PM 66 °F 53 °F 52% 29.95 in 6 mi West 11.5 mph - - Rain Heavy Rain Showers
2:50 PM 62.6 °F 55.4 °F 77% 29.95 in 6.2 mi West 4.6 mph - N/A Rain Light Rain
3:50 PM 62.6 °F 55.4 °F 77% 29.95 in 6.2 mi West 4.6 mph - N/A   Scattered Clouds
4:50 PM 60.8 °F 55.4 °F 82% 29.98 in 6.2 mi SSE 8.1 mph - N/A Rain , Thunderstorm Thunderstorms and Rain
5:50 PM 59.0 °F 53.6 °F 82% 29.98 in 6.2 mi South 8.1 mph - N/A Rain Light Rain
6:50 PM 57.2 °F 53.6 °F 88% 29.98 in 6.2 mi SE 5.8 mph - N/A   Scattered Clouds
7:50 PM 57.2 °F 53.6 °F 88% 30.01 in 6.2 mi ESE 4.6 mph - N/A   Scattered Clouds
8:00 PM 57 °F 53 °F 83% 30.01 in 6 mi ESE 4.6 mph - -   Partly Cloudy
8:50 PM 57.2 °F 53.6 °F 88% 30.01 in 6.2 mi SSE 3.5 mph - N/A   Scattered Clouds
9:50 PM 57.2 °F 53.6 °F 88% 30.01 in 6.2 mi SE 5.8 mph - N/A   Scattered Clouds
10:50 PM 57.2 °F 53.6 °F 88% 30.01 in 6.2 mi ESE 1.2 mph - N/A   Mostly Cloudy
11:50 PM 57.2 °F 53.6 °F 88% 30.01 in 6.2 mi SE 3.5 mph - N/A   Scattered Clouds